#timestamp,LO_Frequency,Hit 
1506189615.5,286047000.9,N
1506189635.3,286047001.6,N
1506189655.1,286047001.2,N
1506189675.9,286046997.6,N
1506189695.7,286046996.1,N
1506189715.5,286046996.8,N
1506189735.4,286046994.9,N
1506189755.2,286047001.1,N
1506189775.0,286047000.2,N
1506189775.9,286047000.2,N
1506189795.8,286046997.5,N
1506189815.6,286046995.7,N
1506189835.4,286046996.0,N
1506189855.2,286046993.1,N
1506189875.1,286046992.5,N
1506189876.0,286046992.5,N
1506189895.8,286046993.9,N
1506189915.6,286046993.6,N
1506189935.5,286046998.0,N
1506189955.3,286046997.3,N
1506189975.1,286046998.7,N
1506189995.9,286047002.3,N
1506190015.7,286046998.0,N
1506190035.5,286046994.3,N
1506190055.4,286046994.5,N
1506190075.2,286046997.6,N
1506190095.0,286046997.2,N
1506190095.9,286046997.2,N
1506190115.8,286047000.5,N
1506190135.6,286046996.8,N
1506190155.4,286046995.4,N
1506190175.2,286046996.0,N
1506190195.1,286046998.4,N
1506190196.0,286046998.4,N
1506190215.8,286047002.5,N
1506190235.6,286046998.9,N
1506190255.5,286046997.0,N
1506190275.3,286046996.9,N
1506190295.1,286047000.7,N
1506190315.9,286046995.6,N
1506190335.7,286046990.7,P
1506190355.5,286046995.3,N
1506190375.4,286046999.2,N
1506190395.2,286046993.7,N
1506190415.0,286046995.6,N
1506190415.9,286046995.6,N
1506190435.8,286046995.7,N
1506190455.6,286046994.9,N
1506190475.4,286047002.2,N
1506190495.3,286047000.6,N
1506190515.1,286046997.0,N
1506190516.0,286046997.0,N
1506190535.8,286047002.1,N
1506190555.7,286047003.7,N
1506190575.5,286047005.5,N
1506190595.3,286047002.2,N
1506190615.1,286047000.0,N
1506190635.9,286047002.2,N
1506190655.7,286047005.2,N
1506190675.5,286047007.9,N
1506190695.4,286047010.9,N
1506190715.2,286047013.8,N
1506190735.0,286047009.3,N
1506190735.9,286047009.3,N
1506190755.8,286047010.6,N
1506190775.6,286047007.5,N
1506190795.4,286047006.7,N
1506190815.3,286047005.8,N
1506190835.1,286047001.8,N
1506190836.0,286047001.8,N
1506190855.8,286047002.6,N
1506190875.7,286046998.2,N
1506190895.5,286047001.0,N
1506190915.3,286047005.3,N
1506190935.2,286047009.4,N
1506190955.9,286047010.9,N
1506190975.7,286047009.6,N
1506190995.5,286047007.4,N
1506191015.4,286047007.2,N
1506191035.2,286047006.6,N
1506191055.0,286047012.3,N
1506191055.9,286047012.3,N
1506191075.8,286047012.8,P
1506191095.6,286047006.1,N
1506191115.5,286047008.4,N
1506191135.3,286047013.8,P
1506191155.1,286047007.3,N
1506191175.9,286047001.1,N
1506191195.7,286046994.9,N
1506191215.5,286046998.6,N
1506191235.4,286047002.4,N
1506191255.2,286047002.2,N
1506191275.0,286047001.3,N
1506191275.9,286047001.3,N
1506191295.7,286047005.0,N
1506191315.6,286047001.7,N
1506191335.4,286047000.4,N
1506191355.2,286046999.1,N
1506191375.1,286046998.8,N
1506191376.0,286046998.8,N
1506191395.8,286047000.5,N
1506191415.6,286047000.0,N
1506191435.5,286047002.8,N
1506191455.3,286046997.8,N
1506191475.1,286046995.6,N
1506191495.9,286046990.1,N
1506191515.7,286046991.4,N
1506191535.5,286046991.1,N
1506191555.3,286046988.9,N
1506191575.2,286046990.1,N
1506191595.0,286046991.1,N
1506191595.9,286046991.1,N
1506191615.7,286046992.2,N
1506191635.6,286046997.8,N
1506191655.4,286046999.5,N
1506191675.2,286046995.8,N
1506191695.1,286046997.7,N
1506191696.0,286046997.7,N
1506191715.8,286046997.3,N
1506191735.6,286047002.7,N
1506191755.5,286046998.9,N
1506191775.3,286046999.3,N
1506191795.1,286047000.8,N
1506191815.9,286046999.6,N
1506191835.7,286047001.0,N
1506191855.5,286047002.8,N
1506191875.4,286047000.4,N
1506191895.2,286047002.9,N
1506191915.0,286046998.5,N
1506191915.9,286046998.5,N
1506191935.7,286046998.3,N
1506191955.6,286046995.0,N
1506191975.4,286046995.1,N
1506191995.2,286046994.3,N
1506192015.1,286046990.6,N
1506192016.0,286046990.6,N
1506192035.8,286046995.2,N
1506192055.6,286046995.1,N
1506192075.5,286047000.9,N
1506192095.3,286046999.0,N
1506192115.1,286046995.0,N
1506192135.9,286047000.8,N
1506192155.7,286046998.8,N
1506192175.5,286046997.1,N
1506192195.4,286046999.3,N
1506192215.2,286047001.2,N
1506192235.0,286047004.3,N
1506192235.9,286047004.3,N
1506192255.8,286047003.4,N
1506192275.6,286047004.3,N
1506192295.4,286047001.5,N
1506192315.2,286047005.9,N
1506192335.1,286047007.5,N
1506192336.0,286047007.5,N
1506192355.8,286047009.7,N
1506192375.6,286047009.8,N
1506192395.5,286047009.7,N
1506192415.3,286047007.0,N
1506192435.1,286047004.5,N
1506192455.9,286047005.8,N
1506192475.7,286047002.5,N
1506192495.5,286047001.9,N
1506192515.4,286047005.4,N
1506192535.2,286047006.0,N
1506192555.0,286047005.5,N
1506192555.9,286047005.5,N
1506192575.8,286047001.4,N
1506192595.6,286047007.6,N
1506192615.4,286047004.6,N
1506192635.3,286047009.1,N
1506192655.1,286047009.4,N
1506192656.0,286047009.4,N
1506192675.8,286047015.2,P
1506192695.7,286047004.7,N
1506192715.5,286047001.9,N
1506192735.3,286047002.0,N
1506192755.2,286046999.7,N
1506192775.9,286047003.0,N
1506192795.7,286047004.9,N
1506192815.6,286047007.4,N
1506192835.4,286047008.6,N
1506192855.2,286047009.1,N
1506192875.0,286047007.1,N
1506192875.9,286047007.1,N
1506192895.8,286046999.9,N
1506192915.6,286046999.2,N
1506192935.4,286046999.4,N
1506192955.3,286046997.2,N
1506192975.1,286047003.9,N
1506192995.8,286047008.7,N
1506193015.7,286047007.9,N
1506193035.5,286047012.0,N
1506193055.3,286047011.4,N
1506193075.2,286047013.8,P
1506193095.9,286047006.8,N
1506193115.7,286047010.3,N
1506193135.6,286047012.7,P
1506193155.4,286047003.7,N
1506193175.2,286046999.1,N
1506193195.1,286046997.0,N
1506193196.0,286046997.0,N
